QPF
0.14 0.14 0.14 0.13 0.13 0.12 0.11 0.08 0.07 0.05 0.04 0.02 0.02 0.01 0.01 0.00 0.00 0.00 0.00 0.00 0.00 0.00 0.00 0.00 0.00 0.00 0.00 0.00 0.00 0.00 0.00 0.00 0.00 0.00 0.00 0.00 0.00 0.00 0.00 0.00 0.00 0.00 0.00
0.09 0.08 0.09 0.08 0.07 0.06 0.06 0.05 0.04 0.03 0.02 0.02 0.01 0.01 0.01 0.00 0.00 0.00 0.00 0.00 0.00 0.00 0.00 0.00 0.00 0.00 0.00 0.00 0.00 0.00 0.00 0.00 0.00 0.00 0.00 0.00 0.00 0.00 0.00 0.00 0.00 0.00 0.00
0.08 0.07 0.06 0.06 0.05 0.04 0.04 0.04 0.04 0.03 0.03 0.02 0.02 0.01 0.01 0.01 0.01 0.00 0.00 0.00 0.00 0.00 0.00 0.00 0.00 0.00 0.00 0.00 0.00 0.00 0.00 0.00 0.00 0.00 0.00 0.00 0.00 0.00 0.00 0.00 0.00 0.00 0.00
0.06 0.05 0.05 0.04 0.04 0.03 0.03 0.02 0.02 0.02 0.02 0.02 0.02 0.02 0.01 0.01 0.00 0.00 0.00 0.00 0.00 0.00 0.00 0.00 0.00 0.00 0.00 0.00 0.00 0.00 0.00 0.00 0.00 0.00 0.00 0.00 0.00 0.00 0.00 0.00 0.00 0.00 0.00
0.05 0.05 0.05 0.05 0.05 0.04 0.03 0.03 0.03 0.03 0.02 0.01 0.01 0.01 0.00 0.00 0.00 0.00 0.00 0.00 0.00 0.00 0.00 0.00 0.00 0.00 0.00 0.00 0.00 0.00 0.00 0.00 0.00 0.00 0.00 0.00 0.00 0.00 0.00 0.00 0.00 0.00 0.00
0.06 0.06 0.05 0.04 0.03 0.03 0.02 0.01 0.01 0.01 0.00 0.00 0.00 0.00 0.00 0.00 0.00 0.00 0.00 0.00 0.00 0.00 0.00 0.00 0.00 0.00 0.00 0.00 0.00 0.00 0.00 0.00 0.00 0.00 0.00 0.00 0.00 0.00 0.00 0.00 0.00 0.01 0.01
0.04 0.03 0.02 0.01 0.01 0.01 0.00 0.00 0.00 0.00 0.00 0.00 0.00 0.00 0.00 0.00 0.00 0.00 0.00 0.00 0.00 0.00 0.00 0.00 0.00 0.00 0.00 0.00 0.00 0.00 0.00 0.00 0.00 0.00 0.00 0.00 0.00 0.00 0.00 0.01 0.01 0.01 0.01
0.01 0.01 0.00 0.00 0.00 0.00 0.00 0.00 0.00 0.01 0.01 0.01 0.01 0.00 0.00 0.00 0.00 0.00 0.00 0.00 0.00 0.00 0.00 0.00 0.00 0.00 0.00 0.00 0.00 0.00 0.00 0.00 0.00 0.00 0.00 0.00 0.00 0.00 0.01 0.01 0.01 0.01 0.00
0.00 0.00 0.00 0.00 0.00 0.00 0.00 0.00 0.00 0.00 0.01 0.01 0.01 0.01 0.01 0.00 0.00 0.00 0.00 0.00 0.00 0.00 0.00 0.00 0.00 0.00 0.00 0.00 0.00 0.00 0.00 0.01 0.01 0.01 0.01 0.00 0.00 0.01 0.01 0.01 0.01 0.01 0.01
0.00 0.00 0.00 0.00 0.00 0.00 0.00 0.00 0.00 0.00 0.01 0.01 0.02 0.02 0.01 0.00 0.00 0.00 0.00 0.00 0.00 0.00 0.00 0.00 0.00 0.00 0.00 0.00 0.00 0.00 0.01 0.01 0.01 0.00 0.00 0.00 0.00 0.00 0.00 0.00 0.00 0.00 0.01
0.00 0.01 0.00 0.00 0.00 0.00 0.00 0.00 0.00 0.00 0.00 0.00 0.01 0.01 0.01 0.00 0.00 0.00 0.00 0.00 0.00 0.00 0.00 0.00 0.00 0.00 0.00 0.01 0.01 0.01 0.01 0.01 0.01 0.01 0.00 0.00 0.00 0.00 0.00 0.00 0.00 0.00 0.00
0.01 0.00 0.00 0.00 0.00 0.00 0.00 0.00 0.00 0.00 0.00 0.00 0.00 0.00 0.00 0.00 0.00 0.00 0.00 0.00 0.00 0.00 0.00 0.00 0.00 0.00 0.01 0.01 0.01 0.01 0.01 0.02 0.02 0.01 0.00 0.00 0.00 0.00 0.00 0.00 0.00 0.00 0.00
0.00 0.00 0.00 0.00 0.00 0.00 0.00 0.00 0.00 0.00 0.00 0.00 0.00 0.00 0.00 0.00 0.00 0.00 0.00 0.00 0.00 0.00 0.00 0.00 0.01 0.01 0.01 0.01 0.01 0.01 0.02 0.01 0.01 0.01 0.00 0.00 0.00 0.00 0.00 0.00 0.00 0.00 0.00
0.00 0.00 0.00 0.00 0.00 0.00 0.00 0.00 0.00 0.00 0.00 0.00 0.00 0.00 0.00 0.00 0.00 0.00 0.00 0.00 0.00 0.00 0.01 0.01 0.01 0.01 0.01 0.01 0.01 0.01 0.01 0.00 0.00 0.00 0.00 0.00 0.00 0.00 0.00 0.00 0.00 0.00 0.00
0.00 0.00 0.00 0.00 0.00 0.00 0.00 0.00 0.00 0.00 0.00 0.00 0.00 0.00 0.00 0.00 0.00 0.00 0.00 0.00 0.00 0.01 0.02 0.02 0.01 0.01 0.02 0.01 0.01 0.01 0.00 0.00 0.00 0.00 0.00 0.00 0.00 0.00 0.00 0.00 0.00 0.00 0.00
0.00 0.00 0.00 0.00 0.00 0.00 0.00 0.00 0.00 0.00 0.00 0.00 0.00 0.00 0.00 0.00 0.00 0.00 0.00 0.00 0.01 0.02 0.02 0.02 0.02 0.02 0.02 0.02 0.01 0.01 0.00 0.00 0.00 0.00 0.00 0.00 0.00 0.00 0.00 0.00 0.00 0.00 0.00
0.00 0.00 0.00 0.00 0.00 0.00 0.00 0.00 0.00 0.00 0.00 0.00 0.00 0.00 0.00 0.00 0.01 0.01 0.01 0.01 0.01 0.02 0.03 0.03 0.03 0.02 0.02 0.02 0.01 0.00 0.00 0.00 0.00 0.00 0.00 0.00 0.00 0.00 0.00 0.00 0.00 0.00 0.00
0.00 0.00 0.00 0.00 0.00 0.00 0.00 0.00 0.00 0.00 0.00 0.00 0.00 0.00 0.00 0.01 0.01 0.00 0.01 0.01 0.02 0.04 0.05 0.05 0.03 0.02 0.01 0.01 0.00 0.00 0.00 0.00 0.00 0.00 0.00 0.00 0.00 0.00 0.00 0.00 0.00 0.00 0.00
0.00 0.00 0.00 0.00 0.00 0.00 0.00 0.00 0.00 0.00 0.00 0.00 0.00 0.00 0.01 0.01 0.01 0.01 0.01 0.02 0.04 0.04 0.03 0.02 0.02 0.01 0.00 0.00 0.00 0.00 0.00 0.00 0.00 0.00 0.00 0.00 0.00 0.00 0.00 0.00 0.00 0.00 0.00
0.00 0.00 0.00 0.00 0.00 0.00 0.00 0.00 0.00 0.00 0.00 0.00 0.00 0.00 0.00 0.01 0.01 0.01 0.01 0.02 0.02 0.02 0.01 0.01 0.01 0.00 0.00 0.00 0.00 0.00 0.00 0.00 0.00 0.00 0.00 0.00 0.00 0.00 0.00 0.00 0.00 0.00 0.00
0.00 0.00 0.00 0.00 0.00 0.00 0.00 0.00 0.00 0.00 0.00 0.00 0.00 0.00 0.01 0.01 0.02 0.01 0.02 0.01 0.01 0.01 0.01 0.00 0.00 0.00 0.00 0.00 0.00 0.00 0.00 0.00 0.00 0.00 0.00 0.00 0.00 0.00 0.00 0.00 0.00 0.00 0.00
0.00 0.00 0.00 0.00 0.00 0.00 0.00 0.00 0.00 0.00 0.00 0.00 0.00 0.00 0.01 0.01 0.02 0.01 0.01 0.00 0.00 0.00 0.00 0.00 0.00 0.00 0.00 0.00 0.00 0.00 0.00 0.00 0.00 0.00 0.00 0.00 0.00 0.00 0.00 0.00 0.00 0.00 0.00
0.00 0.00 0.00 0.00 0.00 0.00 0.00 0.00 0.00 0.00 0.00 0.00 0.00 0.00 0.00 0.00 0.00 0.00 0.00 0.00 0.00 0.00 0.00 0.00 0.00 0.00 0.00 0.00 0.00 0.00 0.00 0.00 0.00 0.00 0.00 0.00 0.00 0.00 0.00 0.00 0.00 0.00 0.00
0.00 0.00 0.00 0.00 0.00 0.00 0.00 0.00 0.00 0.00 0.00 0.00 0.00 0.00 0.00 0.00 0.00 0.00 0.00 0.00 0.00 0.00 0.00 0.00 0.00 0.00 0.00 0.00 0.00 0.00 0.00 0.00 0.00 0.00 0.00 0.00 0.00 0.00 0.00 0.00 0.00 0.00 0.00
0.00 0.00 0.00 0.00 0.00 0.00 0.00 0.00 0.00 0.00 0.00 0.00 0.00 0.00 0.00 0.00 0.00 0.00 0.00 0.00 0.00 0.00 0.00 0.00 0.00 0.00 0.00 0.00 0.00 0.00 0.00 0.00 0.00 0.00 0.00 0.00 0.00 0.00 0.00 0.00 0.00 0.00 0.00
0.00 0.00 0.00 0.00 0.00 0.00 0.00 0.00 0.00 0.00 0.00 0.00 0.00 0.00 0.00 0.00 0.00 0.00 0.00 0.00 0.00 0.00 0.00 0.00 0.00 0.00 0.00 0.00 0.00 0.00 0.00 0.00 0.00 0.00 0.00 0.00 0.00 0.00 0.00 0.00 0.00 0.00 0.00
MSLP
1019.41 1019.90 1020.45 1021.01 1021.56 1022.05 1022.49 1022.85 1023.16 1023.40 1023.61 1023.78 1023.94 1024.10 1024.26 1024.41 1024.55 1024.68 1024.79 1024.88 1024.95 1025.01 1025.04 1025.06 1025.07 1025.07 1025.07 1025.07 1025.06 1025.04 1025.01 1024.95 1024.86 1024.71 1024.50 1024.23 1023.90 1023.50 1023.05 1022.58 1022.09 1021.61 1021.16
1020.50 1020.95 1021.44 1021.92 1022.39 1022.81 1023.19 1023.51 1023.79 1024.02 1024.23 1024.42 1024.60 1024.77 1024.93 1025.09 1025.22 1025.32 1025.40 1025.45 1025.45 1025.43 1025.39 1025.32 1025.25 1025.18 1025.12 1025.06 1025.02 1024.98 1024.93 1024.86 1024.75 1024.58 1024.34 1024.03 1023.64 1023.18 1022.68 1022.14 1021.60 1021.08 1020.58
1021.58 1022.00 1022.43 1022.85 1023.25 1023.61 1023.93 1024.21 1024.46 1024.68 1024.88 1025.07 1025.25 1025.41 1025.57 1025.71 1025.81 1025.89 1025.92 1025.91 1025.85 1025.75 1025.63 1025.49 1025.33 1025.19 1025.06 1024.95 1024.86 1024.79 1024.72 1024.63 1024.51 1024.32 1024.06 1023.73 1023.30 1022.81 1022.27 1021.70 1021.12 1020.57 1020.05
1022.65 1023.04 1023.43 1023.79 1024.13 1024.43 1024.69 1024.93 1025.15 1025.34 1025.52 1025.69 1025.85 1026.00 1026.13 1026.24 1026.31 1026.33 1026.32 1026.25 1026.13 1025.97 1025.78 1025.56 1025.34 1025.12 1024.93 1024.76 1024.63 1024.51 1024.41 1024.30 1024.15 1023.95 1023.68 1023.33 1022.90 1022.40 1021.84 1021.26 1020.67 1020.10 1019.57
1023.69 1024.05 1024.39 1024.70 1024.98 1025.22 1025.44 1025.63 1025.80 1025.97 1026.12 1026.26 1026.38 1026.49 1026.58 1026.65 1026.67 1026.65 1026.59 1026.47 1026.31 1026.09 1025.85 1025.57 1025.29 1025.01 1024.76 1024.53 1024.34 1024.17 1024.02 1023.87 1023.70 1023.48 1023.21 1022.85 1022.43 1021.94 1021.40 1020.83 1020.25 1019.68 1019.15
1024.67 1025.00 1025.28 1025.53 1025.75 1025.94 1026.10 1026.25 1026.38 1026.50 1026.61 1026.71 1026.80 1026.86 1026.90 1026.91 1026.89 1026.83 1026.72 1026.57 1026.37 1026.13 1025.85 1025.53 1025.21 1024.88 1024.56 1024.27 1024.01 1023.78 1023.57 1023.38 1023.17 1022.93 1022.65 1022.30 1021.90 1021.44 1020.93 1020.40 1019.85 1019.31 1018.78
1025.53 1025.81 1026.05 1026.24 1026.40 1026.53 1026.65 1026.75 1026.84 1026.92 1026.98 1027.03 1027.07 1027.08 1027.07 1027.03 1026.97 1026.87 1026.74 1026.57 1026.35 1026.09 1025.79 1025.46 1025.09 1024.72 1024.35 1023.99 1023.66 1023.36 1023.09 1022.84 1022.58 1022.32 1022.03 1021.70 1021.33 1020.91 1020.45 1019.97 1019.47 1018.96 1018.46
1026.24 1026.46 1026.63 1026.77 1026.87 1026.96 1027.03 1027.09 1027.15 1027.19 1027.21 1027.22 1027.21 1027.17 1027.11 1027.03 1026.93 1026.80 1026.65 1026.47 1026.25 1025.99 1025.68 1025.33 1024.95 1024.54 1024.12 1023.70 1023.30 1022.93 1022.58 1022.27 1021.97 1021.69 1021.39 1021.08 1020.74 1020.37 1019.96 1019.54 1019.09 1018.63 1018.16
1026.75 1026.91 1027.03 1027.11 1027.17 1027.22 1027.26 1027.29 1027.32 1027.33 1027.33 1027.30 1027.25 1027.17 1027.07 1026.95 1026.82 1026.67 1026.51 1026.32 1026.10 1025.84 1025.53 1025.17 1024.77 1024.33 1023.86 1023.38 1022.92 1022.48 1022.07 1021.70 1021.36 1021.05 1020.75 1020.45 1020.15 1019.82 1019.48 1019.11 1018.72 1018.31 1017.88
1027.08 1027.18 1027.24 1027.28 1027.31 1027.33 1027.35 1027.37 1027.39 1027.39 1027.37 1027.32 1027.24 1027.14 1027.01 1026.86 1026.70 1026.53 1026.35 1026.15 1025.92 1025.66 1025.34 1024.97 1024.55 1024.07 1023.57 1023.05 1022.53 1022.03 1021.57 1021.15 1020.78 1020.45 1020.15 1019.87 1019.59 1019.31 1019.01 1018.69 1018.35 1017.98 1017.59
1027.24 1027.28 1027.30 1027.31 1027.32 1027.33 1027.35 1027.38 1027.40 1027.40 1027.38 1027.33 1027.24 1027.11 1026.96 1026.79 1026.60 1026.41 1026.20 1025.98 1025.74 1025.45 1025.12 1024.73 1024.28 1023.78 1023.24 1022.69 1022.13 1021.59 1021.10 1020.65 1020.26 1019.92 1019.62 1019.35 1019.09 1018.84 1018.57 1018.29 1017.98 1017.65 1017.29
1027.25 1027.26 1027.25 1027.24 1027.25 1027.27 1027.30 1027.35 1027.39 1027.41 1027.40 1027.35 1027.26 1027.13 1026.96 1026.76 1026.55 1026.33 1026.09 1025.84 1025.56 1025.25 1024.89 1024.47 1023.99 1023.47 1022.90 1022.32 1021.74 1021.19 1020.68 1020.22 1019.82 1019.47 1019.18 1018.91 1018.66 1018.42 1018.17 1017.90 1017.61 1017.30 1016.96
1027.17 1027.15 1027.13 1027.12 1027.13 1027.17 1027.24 1027.31 1027.38 1027.43 1027.44 1027.40 1027.32 1027.18 1027.00 1026.79 1026.55 1026.29 1026.02 1025.72 1025.40 1025.05 1024.65 1024.20 1023.69 1023.15 1022.57 1021.98 1021.39 1020.84 1020.33 1019.88 1019.48 1019.13 1018.84 1018.57 1018.31 1018.06 1017.81 1017.53 1017.24 1016.93 1016.60
1027.01 1026.99 1026.97 1026.98 1027.01 1027.08 1027.18 1027.28 1027.38 1027.46 1027.49 1027.47 1027.39 1027.26 1027.07 1026.84 1026.57 1026.28 1025.97 1025.63 1025.27 1024.87 1024.43 1023.95 1023.42 1022.86 1022.28 1021.69 1021.12 1020.58 1020.09 1019.65 1019.26 1018.91 1018.61 1018.32 1018.05 1017.77 1017.49 1017.19 1016.88 1016.56 1016.23
1026.83 1026.81 1026.81 1026.84 1026.91 1027.01 1027.13 1027.27 1027.39 1027.49 1027.54 1027.53 1027.46 1027.33 1027.14 1026.89 1026.61 1026.29 1025.94 1025.57 1025.17 1024.73 1024.26 1023.75 1023.22 1022.65 1022.08 1021.51 1020.97 1020.45 1019.98 1019.55 1019.17 1018.82 1018.49 1018.18 1017.87 1017.55 1017.22 1016.88 1016.53 1016.19 1015.86
1026.64 1026.64 1026.67 1026.73 1026.82 1026.95 1027.10 1027.25 1027.39 1027.50 1027.56 1027.57 1027.50 1027.37 1027.18 1026.93 1026.64 1026.30 1025.94 1025.54 1025.11 1024.66 1024.17 1023.66 1023.12 1022.57 1022.02 1021.48 1020.96 1020.47 1020.02 1019.60 1019.21 1018.85 1018.50 1018.14 1017.78 1017.40 1017.02 1016.63 1016.25 1015.88 1015.54
1026.48 1026.50 1026.56 1026.65 1026.77 1026.92 1027.08 1027.24 1027.39 1027.50 1027.56 1027.56 1027.50 1027.37 1027.19 1026.94 1026.65 1026.32 1025.96 1025.56 1025.13 1024.67 1024.19 1023.69 1023.17 1022.64 1022.11 1021.60 1021.11 1020.65 1020.21 1019.79 1019.39 1019.00 1018.60 1018.20 1017.78 1017.34 1016.90 1016.46 1016.04 1015.65 1015.31
1026.36 1026.41 1026.50 1026.61 1026.75 1026.91 1027.08 1027.24 1027.37 1027.48 1027.53 1027.53 1027.47 1027.35 1027.18 1026.95 1026.68 1026.37 1026.02 1025.64 1025.23 1024.79 1024.33 1023.85 1023.36 1022.86 1022.37 1021.88 1021.41 1020.96 1020.53 1020.10 1019.67 1019.25 1018.80 1018.34 1017.86 1017.37 1016.88 1016.40 1015.96 1015.56 1015.21
1026.29 1026.38 1026.49 1026.63 1026.78 1026.94 1027.10 1027.25 1027.37 1027.46 1027.51 1027.50 1027.45 1027.34 1027.18 1026.98 1026.73 1026.46 1026.14 1025.80 1025.42 1025.02 1024.60 1024.15 1023.69 1023.23 1022.76 1022.29 1021.83 1021.38 1020.93 1020.48 1020.03 1019.55 1019.06 1018.55 1018.02 1017.49 1016.96 1016.46 1016.00 1015.60 1015.27
1026.30 1026.41 1026.54 1026.69 1026.84 1027.01 1027.16 1027.29 1027.40 1027.47 1027.51 1027.50 1027.45 1027.35 1027.22 1027.05 1026.84 1026.60 1026.34 1026.04 1025.71 1025.35 1024.96 1024.55 1024.12 1023.68 1023.23 1022.77 1022.31 1021.85 1021.37 1020.89 1020.40 1019.88 1019.34 1018.79 1018.23 1017.67 1017.13 1016.63 1016.18 1015.79 1015.48
1026.36 1026.48 1026.63 1026.78 1026.94 1027.10 1027.24 1027.37 1027.46 1027.52 1027.55 1027.54 1027.49 1027.42 1027.31 1027.18 1027.01 1026.82 1026.59 1026.34 1026.05 1025.73 1025.38 1025.00 1024.59 1024.16 1023.72 1023.25 1022.78 1022.29 1021.79 1021.27 1020.74 1020.18 1019.61 1019.04 1018.46 1017.90 1017.37 1016.89 1016.46 1016.10 1015.82
1026.46 1026.60 1026.74 1026.90 1027.07 1027.22 1027.36 1027.47 1027.56 1027.61 1027.64 1027.64 1027.61 1027.55 1027.47 1027.37 1027.23 1027.08 1026.89 1026.67 1026.42 1026.13 1025.80 1025.44 1025.04 1024.61 1024.16 1023.68 1023.19 1022.67 1022.13 1021.58 1021.01 1020.43 1019.85 1019.26 1018.69 1018.15 1017.65 1017.20 1016.82 1016.50 1016.26
1026.59 1026.72 1026.87 1027.03 1027.19 1027.35 1027.48 1027.59 1027.68 1027.74 1027.77 1027.78 1027.77 1027.73 1027.68 1027.60 1027.49 1027.37 1027.21 1027.01 1026.78 1026.50 1026.18 1025.82 1025.42 1024.98 1024.52 1024.01 1023.49 1022.94 1022.38 1021.80 1021.21 1020.62 1020.03 1019.46 1018.91 1018.40 1017.95 1017.55 1017.22 1016.95 1016.75
1026.71 1026.84 1026.99 1027.15 1027.31 1027.47 1027.61 1027.73 1027.82 1027.89 1027.94 1027.96 1027.96 1027.95 1027.91 1027.85 1027.77 1027.65 1027.51 1027.32 1027.09 1026.82 1026.50 1026.13 1025.72 1025.27 1024.78 1024.25 1023.70 1023.13 1022.55 1021.95 1021.35 1020.76 1020.18 1019.64 1019.12 1018.66 1018.26 1017.91 1017.63 1017.41 1017.25
1026.81 1026.93 1027.09 1027.25 1027.42 1027.58 1027.73 1027.86 1027.97 1028.05 1028.11 1028.15 1028.17 1028.17 1028.15 1028.10 1028.03 1027.93 1027.79 1027.60 1027.37 1027.09 1026.76 1026.38 1025.95 1025.49 1024.98 1024.44 1023.87 1023.29 1022.69 1022.09 1021.49 1020.91 1020.36 1019.84 1019.36 1018.95 1018.59 1018.29 1018.06 1017.88 1017.74
1026.89 1027.02 1027.17 1027.34 1027.52 1027.69 1027.84 1027.99 1028.11 1028.21 1028.29 1028.34 1028.38 1028.40 1028.39 1028.35 1028.29 1028.19 1028.05 1027.86 1027.62 1027.34 1027.00 1026.61 1026.17 1025.70 1025.18 1024.63 1024.06 1023.47 1022.87 1022.28 1021.69 1021.13 1020.60 1020.11 1019.67 1019.29 1018.97 1018.71 1018.51 1018.35 1018.23
Thickness
5630 5628 5625 5619 5614 5609 5604 5600 5595 5590 5586 5582 5578 5574 5570 5565 5561 5557 5553 5549 5546 5541 5537 5533 5528 5524 5520 5515 5511 5507 5503 5499 5497 5495 5490 5488 5486 5486 5486 5484 5482 5481 5480
5611 5609 5605 5600 5596 5592 5587 5582 5578 5573 5568 5564 5560 5555 5551 5547 5543 5539 5535 5531 5527 5523 5518 5515 5511 5507 5502 5498 5494 5490 5486 5482 5479 5478 5476 5473 5472 5471 5471 5470 5470 5469 5468
5594 5591 5588 5583 5578 5574 5569 5565 5561 5556 5551 5547 5543 5538 5533 5530 5526 5521 5517 5512 5508 5504 5500 5497 5493 5489 5486 5482 5478 5475 5471 5468 5463 5460 5460 5458 5458 5458 5459 5459 5458 5457 5457
5576 5573 5569 5565 5561 5556 5552 5548 5543 5539 5534 5529 5525 5521 5517 5513 5509 5504 5499 5495 5491 5487 5483 5480 5476 5473 5470 5467 5464 5461 5457 5453 5450 5448 5447 5447 5447 5448 5447 5449 5450 5450 5449
5558 5555 5551 5547 5544 5539 5535 5531 5527 5523 5518 5513 5509 5505 5500 5496 5492 5487 5483 5478 5473 5470 5466 5463 5460 5459 5457 5453 5451 5448 5444 5441 5439 5437 5437 5438 5439 5440 5440 5440 5441 5443 5444
5542 5538 5534 5531 5527 5523 5519 5514 5510 5506 5502 5498 5493 5489 5484 5480 5476 5472 5467 5462 5457 5453 5450 5447 5445 5444 5441 5438 5436 5434 5433 5432 5431 5429 5430 5431 5433 5433 5433 5433 5435 5437 5440
5527 5523 5520 5516 5512 5508 5504 5499 5495 5491 5487 5482 5478 5474 5469 5465 5460 5456 5451 5446 5442 5438 5435 5432 5431 5429 5426 5424 5423 5423 5424 5424 5424 5423 5425 5427 5428 5429 5428 5430 5431 5431 5432
5514 5510 5506 5502 5498 5494 5490 5485 5481 5476 5472 5468 5463 5459 5455 5450 5446 5441 5436 5432 5428 5425 5422 5420 5418 5417 5417 5415 5415 5416 5418 5420 5421 5422 5423 5425 5426 5427 5426 5427 5427 5427 5428
5502 5498 5494 5490 5486 5482 5478 5473 5469 5464 5460 5455 5451 5446 5441 5436 5432 5428 5423 5419 5416 5414 5413 5412 5410 5410 5410 5408 5409 5411 5414 5419 5421 5422 5424 5425 5426 5427 5426 5426 5426 5425 5426
5491 5487 5483 5479 5475 5471 5466 5462 5457 5453 5449 5444 5439 5434 5429 5423 5419 5415 5411 5408 5406 5406 5406 5407 5407 5406 5407 5407 5407 5409 5412 5417 5419 5422 5425 5427 5428 5428 5428 5426 5424 5422 5422
5481 5477 5473 5469 5465 5461 5457 5452 5448 5443 5438 5433 5427 5422 5416 5412 5407 5404 5401 5399 5398 5399 5400 5402 5404 5405 5406 5408 5408 5410 5412 5415 5418 5421 5423 5426 5428 5428 5428 5426 5423 5420 5418
5472 5469 5465 5460 5457 5453 5448 5443 5438 5434 5428 5422 5417 5412 5407 5403 5400 5397 5395 5394 5394 5394 5397 5399 5402 5404 5407 5410 5411 5413 5415 5417 5420 5422 5424 5426 5427 5428 5427 5426 5424 5422 5419
5464 5460 5456 5452 5448 5444 5440 5436 5431 5425 5420 5415 5410 5405 5402 5398 5395 5393 5392 5392 5392 5393 5396 5398 5402 5406 5409 5412 5415 5416 5419 5420 5421 5423 5425 5426 5426 5426 5426 5425 5425 5423 5421
5457 5452 5449 5445 5442 5438 5434 5430 5425 5420 5415 5411 5406 5402 5398 5395 5393 5391 5391 5392 5393 5395 5398 5401 5405 5408 5411 5414 5417 5419 5421 5421 5422 5424 5425 5426 5427 5427 5427 5425 5423 5421 5419
5451 5447 5444 5440 5437 5433 5429 5424 5421 5416 5412 5407 5403 5399 5396 5394 5392 5390 5390 5392 5393 5395 5398 5403 5407 5410 5413 5416 5419 5421 5423 5425 5426 5427 5427 5428 5428 5428 5427 5425 5421 5419 5417
5447 5444 5440 5437 5433 5430 5425 5421 5417 5414 5411 5407 5402 5399 5396 5394 5393 5393 5394 5395 5397 5399 5401 5404 5407 5409 5411 5414 5417 5421 5424 5426 5427 5427 5428 5428 5429 5428 5427 5426 5422 5419 5417
5443 5441 5437 5434 5431 5427 5423 5419 5416 5412 5409 5406 5403 5400 5398 5396 5396 5396 5397 5399 5401 5402 5404 5405 5408 5410 5412 5415 5418 5420 5423 5425 5426 5428 5429 5429 5429 5429 5428 5426 5423 5420 5418
5441 5438 5436 5433 5430 5426 5422 5418 5414 5411 5408 5405 5403 5401 5399 5399 5398 5398 5399 5401 5403 5405 5405 5407 5409 5411 5414 5416 5419 5421 5423 5426 5428 5429 5429 5429 5429 5429 5428 5427 5424 5420 5417
5438 5436 5433 5431 5428 5424 5421 5417 5413 5410 5407 5404 5402 5402 5401 5400 5400 5400 5401 5401 5402 5404 5406 5408 5410 5412 5415 5417 5419 5421 5423 5425 5427 5428 5429 5429 5429 5429 5429 5428 5425 5420 5418
5436 5435 5432 5429 5426 5423 5420 5417 5413 5410 5407 5404 5403 5401 5400 5401 5401 5401 5401 5402 5403 5405 5407 5409 5411 5413 5415 5418 5420 5422 5424 5426 5427 5428 5428 5428 5429 5429 5429 5428 5426 5423 5420
5433 5432 5431 5428 5425 5422 5419 5416 5413 5410 5407 5405 5403 5401 5400 5400 5400 5400 5401 5403 5404 5406 5408 5410 5412 5414 5416 5418 5420 5422 5424 5426 5427 5427 5427 5428 5429 5429 5429 5428 5426 5423 5421
5432 5430 5428 5426 5423 5421 5418 5416 5413 5410 5407 5405 5403 5402 5402 5401 5401 5402 5403 5404 5405 5407 5408 5410 5412 5414 5415 5417 5419 5421 5424 5426 5427 5427 5427 5428 5428 5429 5429 5428 5426 5424 5421
5431 5429 5426 5424 5422 5420 5417 5415 5412 5410 5407 5405 5404 5403 5402 5402 5403 5403 5404 5405 5406 5408 5410 5412 5414 5416 5417 5419 5420 5421 5423 5424 5425 5425 5426 5428 5429 5429 5428 5427 5425 5424 5421
5430 5428 5425 5423 5420 5418 5416 5414 5411 5409 5407 5405 5404 5403 5403 5403 5403 5404 5405 5406 5407 5409 5411 5413 5414 5416 5419 5421 5423 5424 5425 5426 5427 5428 5429 5429 5429 5429 5428 5426 5424 5422 5420
5430 5427 5425 5422 5420 5417 5415 5413 5411 5409 5407 5406 5405 5404 5403 5404 5404 5405 5406 5407 5408 5410 5412 5414 5416 5418 5420 5422 5423 5425 5428 5430 5431 5431 5431 5431 5430 5428 5427 5425 5423 5422 5420
5430 5428 5425 5422 5419 5417 5415 5413 5411 5409 5408 5406 5405 5404 5404 5404 5405 5405 5406 5407 5409 5410 5412 5414 5416 5418 5420 5422 5424 5426 5429 5431 5432 5432 5432 5431 5429 5428 5426 5425 5423 5421 5419